| time (UTC) | temp C | wind direction | speed KPH | gust KPH | rain 1hr cm | rain 24hr cm | rain mn cm | humidity % | barometer mb |
| 20260506024502 | 15 | 163 | 3.2 | 11.3 | 0.00 | 0.00 | 0.00 | 81 | 1007.9 |
| 20260506023002 | 15 | 161 | 3.2 | 8.0 | 0.00 | 0.00 | 0.00 | 81 | 1007.9 |
| 20260506021502 | 15 | 161 | 3.2 | 25.7 | 0.00 | 0.00 | 0.00 | 79 | 1007.9 |
| 20260506020100 | 15 | 184 | 3.2 | 17.7 | 0.00 | 0.00 | 0.00 | 77 | 1007.8 |
| 20260506014600 | 15 | 165 | 4.8 | 11.3 | 0.00 | 0.00 | 0.00 | 77 | 1007.7 |
| 20260506013059 | 15 | 138 | 3.2 | 12.9 | 0.00 | 0.00 | 0.00 | 76 | 1007.6 |
| 20260506011558 | 16 | 180 | 8.0 | 16.1 | 0.00 | 0.00 | 0.00 | 76 | 1007.3 |
| 20260506010057 | 16 | 140 | 4.8 | 24.1 | 0.00 | 0.00 | 0.00 | 74 | 1007.2 |
| 20260506004558 | 16 | 202 | 4.8 | 14.5 | 0.00 | 0.00 | 0.00 | 74 | 1007.1 |
| 20260506003056 | 16 | 164 | 6.4 | 14.5 | 0.00 | 0.00 | 0.00 | 73 | 1006.9 |
| 20260506001616 | 16 | 214 | 4.8 | 17.7 | 0.00 | 0.00 | 0.00 | 73 | 1006.8 |
| 20260506000054 | 16 | 200 | 4.8 | 17.7 | 0.00 | 0.00 | 0.00 | 73 | 1006.7 |
| 20260505234554 | 16 | 176 | 4.8 | 19.3 | 0.00 | 0.00 | 0.00 | 72 | 1006.4 |
| 20260505233057 | 16 | 146 | 4.8 | 17.7 | 0.00 | 0.00 | 0.00 | 71 | 1006.0 |
| 20260505231556 | 16 | 57 | 8.0 | 20.9 | 0.00 | 0.00 | 0.00 | 71 | 1005.9 |
| 20260505224551 | 17 | 169 | 6.4 | 14.5 | 0.00 | 0.00 | 0.00 | 69 | 1005.8 |
| 20260505223057 | 17 | 134 | 6.4 | 16.1 | 0.00 | 0.00 | 0.00 | 68 | 1005.6 |
| 20260505221553 | 17 | 207 | 11.3 | 33.8 | 0.00 | 0.00 | 0.00 | 66 | 1005.6 |
| 20260505220050 | 18 | 162 | 6.4 | 29.0 | 0.00 | 0.00 | 0.00 | 65 | 1005.6 |
| 20260505214600 | 18 | 254 | 4.8 | 17.7 | 0.00 | 0.00 | 0.00 | 65 | 1005.5 |
| 20260505213056 | 18 | 171 | 4.8 | 17.7 | 0.00 | 0.00 | 0.00 | 65 | 1005.4 |
| 20260505211547 | 18 | 219 | 6.4 | 16.1 | 0.00 | 0.00 | 0.00 | 64 | 1005.1 |
| 20260505210051 | 19 | 171 | 6.4 | 14.5 | 0.00 | 0.00 | 0.00 | 63 | 1005.3 |
| 20260505204545 | 19 | 140 | 3.2 | 9.7 | 0.00 | 0.00 | 0.00 | 63 | 1005.2 |
| 20260505203048 | 19 | 183 | 4.8 | 12.9 | 0.00 | 0.00 | 0.00 | 63 | 1005.2 |
| 20260505201551 | 20 | 190 | 4.8 | 14.5 | 0.00 | 0.00 | 0.00 | 61 | 1005.3 |
| 20260505200042 | 21 | 155 | 4.8 | 14.5 | 0.00 | 0.00 | 0.00 | 59 | 1005.5 |
| 20260505194541 | 21 | 196 | 4.8 | 14.5 | 0.00 | 0.00 | 0.00 | 59 | 1005.7 |
| 20260505193045 | 21 | 188 | 4.8 | 16.1 | 0.00 | 0.00 | 0.00 | 59 | 1005.9 |
| 20260505191545 | 21 | 166 | 4.8 | 14.5 | 0.00 | 0.00 | 0.00 | 59 | 1006.3 |
| 20260505190037 | 21 | 219 | 3.2 | 11.3 | 0.00 | 0.00 | 0.00 | 60 | 1006.5 |
| 20260505184532 | 21 | 143 | 4.8 | 14.5 | 0.00 | 0.00 | 0.00 | 60 | 1006.6 |
| 20260505183045 | 21 | 151 | 4.8 | 11.3 | 0.00 | 0.00 | 0.00 | 60 | 1006.8 |
| 20260505181530 | 21 | 212 | 4.8 | 12.9 | 0.00 | 0.00 | 0.00 | 61 | 1006.9 |
| 20260505180035 | 21 | 149 | 4.8 | 12.9 | 0.00 | 0.00 | 0.00 | 60 | 1007.0 |
| 20260505174536 | 21 | 196 | 6.4 | 16.1 | 0.00 | 0.00 | 0.00 | 59 | 1007.1 |
| 20260505173036 | 21 | 180 | 3.2 | 12.9 | 0.00 | 0.00 | 0.00 | 61 | 1007.1 |
| 20260505171530 | 21 | 185 | 4.8 | 11.3 | 0.00 | 0.00 | 0.00 | 62 | 1007.2 |
| 20260505170026 | 21 | 143 | 6.4 | 12.9 | 0.00 | 0.00 | 0.00 | 59 | 1007.3 |
| 20260505164533 | 22 | 40 | 3.2 | 12.9 | 0.00 | 0.00 | 0.00 | 57 | 1007.3 |
| 20260505163024 | 22 | 233 | 3.2 | 9.7 | 0.00 | 0.00 | 0.00 | 59 | 1007.5 |
| 20260505161521 | 22 | 187 | 3.2 | 8.0 | 0.00 | 0.00 | 0.00 | 57 | 1007.7 |
| 20260505153020 | 21 | 195 | 3.2 | 8.0 | 0.00 | 0.00 | 0.00 | 60 | 1007.9 |
| 20260505151509 | 21 | 163 | 3.2 | 8.0 | 0.00 | 0.00 | 0.00 | 60 | 1008.2 |
| 20260505140104 | 20 | 146 | 3.2 | 8.0 | 0.00 | 0.00 | 0.00 | 64 | 1008.1 |
| 20260505124530 | 16 | 154 | 1.6 | 6.4 | 0.00 | 0.00 | 0.00 | 80 | 1007.9 |
| 20260505123039 | 15 | 107 | 1.6 | 4.8 | 0.00 | 0.00 | 0.00 | 84 | 1007.9 |
| 20260505121524 | 14 | 107 | 0.0 | 3.2 | 0.00 | 0.00 | 0.00 | 86 | 1007.8 |
| 20260505120015 | 13 | 152 | 1.6 | 3.2 | 0.00 | 0.00 | 0.00 | 89 | 1008.0 |
| 20260505114513 | 12 | 152 | 0.0 | 3.2 | 0.00 | 0.00 | 0.00 | 90 | 1007.9 |
| 20260505113010 | 12 | 152 | 0.0 | 3.2 | 0.00 | 0.00 | 0.00 | 91 | 1008.1 |
| 20260505111515 | 11 | 152 | 0.0 | 4.8 | 0.00 | 0.00 | 0.00 | 91 | 1008.1 |
| 20260505101556 | 10 | 130 | 0.0 | 3.2 | 0.00 | 0.00 | 0.00 | 91 | 1007.2 |
| 20260505100101 | 10 | 195 | 0.0 | 3.2 | 0.00 | 0.00 | 0.00 | 91 | 1007.1 |
| 20260505094552 | 10 | 195 | 0.0 | 1.6 | 0.00 | 0.00 | 0.00 | 91 | 1007.0 |
| 20260505093050 | 10 | 148 | 0.0 | 1.6 | 0.00 | 0.00 | 0.00 | 90 | 1007.0 |
| 20260505091550 | 10 | 241 | 0.0 | 1.6 | 0.00 | 0.00 | 0.00 | 90 | 1007.1 |
| 20260505090058 | 10 | 241 | 0.0 | 4.8 | 0.00 | 0.00 | 0.00 | 91 | 1007.0 |
| 20260505084547 | 11 | 134 | 0.0 | 3.2 | 0.00 | 0.00 | 0.00 | 91 | 1007.0 |
| 20260505083046 | 11 | 134 | 1.6 | 4.8 | 0.00 | 0.00 | 0.00 | 90 | 1007.1 |
| 20260505081548 | 10 | 154 | 0.0 | 3.2 | 0.00 | 0.00 | 0.00 | 90 | 1007.1 |
| 20260505080052 | 11 | 154 | 0.0 | 1.6 | 0.00 | 0.00 | 0.00 | 90 | 1007.1 |
| 20260505074543 | 11 | 124 | 1.6 | 4.8 | 0.00 | 0.00 | 0.00 | 90 | 1007.0 |
| 20260505073054 | 11 | 129 | 1.6 | 4.8 | 0.00 | 0.00 | 0.00 | 90 | 1007.1 |
| 20260505071542 | 11 | 256 | 1.6 | 4.8 | 0.00 | 0.00 | 0.00 | 90 | 1007.0 |
| 20260505070050 | 11 | 193 | 0.0 | 6.4 | 0.00 | 0.00 | 0.00 | 89 | 1007.1 |
| 20260505064538 | 11 | 117 | 1.6 | 4.8 | 0.00 | 0.00 | 0.00 | 89 | 1007.2 |
| 20260505063037 | 11 | 256 | 0.0 | 6.4 | 0.00 | 0.00 | 0.00 | 89 | 1007.2 |
| 20260505061536 | 11 | 73 | 1.6 | 4.8 | 0.00 | 0.00 | 0.00 | 89 | 1007.3 |
| 20260505060035 | 11 | 316 | 0.0 | 3.2 | 0.00 | 0.00 | 0.00 | 88 | 1007.4 |
| 20260505054534 | 11 | 159 | 1.6 | 4.8 | 0.00 | 0.00 | 0.00 | 88 | 1007.5 |
| 20260505053031 | 11 | 186 | 1.6 | 6.4 | 0.00 | 0.00 | 0.00 | 88 | 1007.6 |
| 20260505051535 | 11 | 222 | 1.6 | 4.8 | 0.00 | 0.00 | 0.00 | 87 | 1007.6 |
| 20260505041540 | 11 | 138 | 0.0 | 3.2 | 0.00 | 0.00 | 0.00 | 85 | 1007.9 |
| 20260505040022 | 12 | 82 | 1.6 | 8.0 | 0.00 | 0.00 | 0.00 | 84 | 1008.0 |
| 20260505034521 | 12 | 254 | 0.0 | 3.2 | 0.00 | 0.00 | 0.00 | 82 | 1007.9 |
| 20260505033020 | 12 | 254 | 0.0 | 6.4 | 0.00 | 0.00 | 0.00 | 82 | 1007.9 |
| 20260505031519 | 12 | 22 | 0.0 | 8.0 | 0.00 | 0.00 | 0.00 | 82 | 1007.9 |
| 20260505030020 | 12 | 175 | 0.0 | 14.5 | 0.00 | 0.00 | 0.00 | 82 | 1008.0 |